GW2134 Weather Reports


time (UTC)temp
F
wind
direction
speed
knots
gust
knots
rain 1hr
in
rain 24hr
in
rain mn
in
humidity
%
barometer
mb
20260903034557 66 331 0.9 2.6 0.00 0.40 0.00 79 1023.2
20260903033101 66 0 0.0 2.6 0.00 0.40 0.00 79 1023.2
20260903031602 67 42 1.7 4.3 0.00 0.40 0.00 79 1023.3
20260903030105 66 304 1.7 3.5 0.00 0.40 0.00 80 1023.4
20260903024608 66 331 0.9 3.5 0.00 0.40 0.00 80 1023.4
20260903023102 67 0 0.0 0.9 0.00 0.40 0.00 79 1023.5
20260903021602 66 0 0.0 1.7 0.00 0.40 0.00 79 1023.6
20260903014558 67 0 0.0 2.6 0.00 0.40 0.00 80 1023.5
20260903013054 67 290 1.7 3.5 0.00 0.40 0.00 79 1023.6
20260903011604 67 343 0.9 3.5 0.00 0.40 0.00 78 1023.5
20260903010100 67 0 0.0 0.9 0.00 0.40 0.00 78 1023.4
20260903004600 67 0 0.0 1.7 0.00 0.40 0.00 79 1023.5
20260903003055 67 328 0.0 3.5 0.00 0.40 0.00 80 1023.4
20260903001601 67 5 1.7 4.3 0.00 0.40 0.00 80 1023.3
20260903000107 67 298 0.0 3.5 0.00 0.40 0.00 79 1023.4
20260902234559 67 0 0.0 0.9 0.00 0.40 0.00 79 1023.4
20260902233059 67 0 0.9 4.3 0.00 0.40 0.00 80 1023.5
20260902231604 67 336 1.7 3.5 0.00 0.40 0.00 81 1023.5
20260902224602 67 0 0.0 3.5 0.00 0.40 0.00 82 1023.5
20260902223107 67 0 1.7 4.3 0.00 0.40 0.00 83 1023.4
20260902221600 67 0 0.0 1.7 0.00 0.40 0.00 84 1023.3
20260902214602 67 5 0.0 3.5 0.00 0.40 0.40 83 1023.2
20260902213059 67 56 1.7 4.3 0.00 0.40 0.40 83 1023.2
20260902211556 67 342 1.7 4.3 0.00 0.40 0.40 82 1023.3
20260902204601 67 340 2.6 5.2 0.00 0.40 0.40 82 1022.9
20260902203057 67 342 1.7 5.2 0.00 0.40 0.40 83 1022.9
20260902201600 67 28 3.5 7.0 0.00 0.40 0.40 84 1022.9
20260902194559 67 344 3.5 7.0 0.00 0.40 0.40 85 1022.8
20260902193101 67 338 3.5 7.0 0.00 0.40 0.40 86 1022.8
20260902191559 66 323 2.6 4.3 0.00 0.40 0.40 88 1022.7
20260902190056 66 323 1.7 4.3 0.00 0.39 0.39 88 1022.6
20260902184559 66 347 0.0 4.3 0.00 0.39 0.39 89 1022.5
20260902183059 65 343 2.6 5.2 0.08 0.39 0.39 88 1022.6
20260902181602 67 355 0.9 4.3 0.39 0.39 0.39 88 1022.4
20260902180142 67 360 1.7 3.5 0.39 0.39 0.39 87 1022.3
20260902174600 67 331 2.6 7.8 0.39 0.39 0.39 83 1022.6
20260902173054 71 355 8.7 15.6 0.29 0.29 0.29 76 1023.1
20260902171558 77 344 1.7 3.5 0.00 0.00 0.00 68 1022.3
20260902164603 79 355 1.7 3.5 0.00 0.00 0.00 62 1022.2
20260902163105 79 170 1.7 4.3 0.00 0.00 0.00 59 1022.1
20260902161606 80 0 0.0 1.7 0.00 0.00 0.00 58 1022.3
20260902154556 80 336 0.9 4.3 0.00 0.00 0.00 56 1022.5
20260902153058 80 136 2.6 9.6 0.00 0.00 0.00 57 1022.5
20260902151601 81 64 0.9 4.3 0.00 0.00 0.00 57 1022.3
20260902144600 80 0 0.9 7.0 0.00 0.00 0.00 58 1022.5
20260902143106 82 136 1.7 7.8 0.00 0.00 0.00 55 1022.2
20260902141558 83 0 0.0 1.7 0.00 0.00 0.00 53 1022.3
20260902134558 85 142 2.6 12.2 0.00 0.00 0.00 49 1022.1
20260902133059 87 200 1.7 9.6 0.00 0.00 0.00 45 1022.4
20260902131555 86 0 0.9 9.6 0.00 0.00 0.00 46 1022.5
20260902130059 86 123 3.5 10.4 0.00 0.00 0.00 47 1022.6
20260902124602 86 0 0.0 4.3 0.00 0.00 0.00 45 1022.7
20260902123059 86 163 1.7 7.0 0.00 0.00 0.00 43 1022.8
20260902121607 86 125 3.5 12.2 0.00 0.00 0.00 43 1022.9
20260902120052 87 0 2.6 7.0 0.00 0.00 0.00 42 1023.0
20260902114558 85 106 0.9 4.3 0.00 0.00 0.00 44 1023.3
20260902113105 85 125 1.7 7.0 0.00 0.00 0.00 44 1023.3
20260902111557 84 158 1.7 9.6 0.00 0.00 0.00 45 1023.4
20260902110056 85 139 0.0 7.0 0.00 0.00 0.00 42 1023.5
20260902104601 84 117 4.3 10.4 0.00 0.00 0.00 43 1023.5
20260902103103 83 129 1.7 8.7 0.00 0.00 0.00 45 1023.6
20260902101607 83 168 3.5 9.6 0.00 0.00 0.00 50 1023.8
20260902100105 82 190 3.5 7.8 0.00 0.00 0.00 53 1023.9
20260902094601 82 169 1.7 7.8 0.00 0.00 0.00 54 1024.0
20260902093105 82 170 2.6 6.1 0.00 0.00 0.00 54 1024.1
20260902091603 81 113 1.7 4.3 0.00 0.00 0.00 55 1024.2
20260902090100 81 121 1.7 6.1 0.00 0.00 0.00 56 1024.2
20260902084601 80 108 1.7 4.3 0.00 0.00 0.00 56 1024.2
20260902083058 80 0 0.0 5.2 0.00 0.00 0.00 57 1024.0
20260902081602 79 128 0.9 2.6 0.00 0.00 0.00 57 1023.8
20260902080056 78 113 0.9 2.6 0.00 0.00 0.00 58 1023.8
20260902074600 77 0 0.0 2.6 0.00 0.00 0.00 60 1023.6
20260902073102 76 0 0.9 2.6 0.00 0.00 0.00 62 1023.6
20260902071606 74 0 0.9 3.5 0.00 0.00 0.00 63 1023.3
20260902070058 73 0 0.0 1.7 0.00 0.00 0.00 66 1023.3
20260902064606 71 44 0.0 1.7 0.00 0.00 0.00 68 1023.3
20260902063100 70 0 0.0 0.9 0.00 0.00 0.00 70 1023.3
20260902060109 68 0 0.0 0.9 0.00 0.00 0.00 74 1023.2
20260902054600 67 0 0.0 0.0 0.00 0.00 0.00 75 1023.1
20260902053114 66 0 0.0 0.9 0.00 0.00 0.00 76 1023.0
20260902051600 66 43 0.0 1.7 0.00 0.00 0.00 77 1022.9
20260902050107 65 0 0.0 0.9 0.00 0.00 0.00 73 1022.9
20260902044606 66 0 0.0 0.9 0.00 0.00 0.00 75 1023.0
20260902043106 66 0 0.0 0.9 0.00 0.00 0.00 75 1022.9
20260902041604 66 0 0.0 0.9 0.00 0.00 0.00 75 1022.9
20260902040056 66 0 0.0 2.6 0.00 0.00 0.00 75 1022.8